DW7857 Weather Reports


Display with metric or nautical units.
time (UTC)temp
F
wind
direction
speed
MPH
gust
MPH
rain 1hr
in
rain 24hr
in
rain mn
in
humidity
%
barometer
mb
20180123180010 53 216 6.0 11.0 0.00 0.09 0.09 83 1007.8
20180123175010 53 197 3.0 7.0 0.00 0.09 0.09 83 1007.8
20180123174009 53 211 2.0 4.0 0.00 0.09 0.09 83 1007.7
20180123173009 53 207 4.0 5.0 0.01 0.09 0.09 83 1008.0
20180123172009 54 214 3.0 5.0 0.02 0.09 0.09 83 1007.7
20180123171010 54 182 4.0 5.0 0.02 0.09 0.09 83 1007.5
20180123170010 54 177 3.0 4.0 0.02 0.09 0.09 83 1007.6
20180123165009 54 220 4.0 8.0 0.02 0.09 0.09 83 1007.7
20180123164009 54 292 3.0 6.0 0.02 0.09 0.09 83 1007.6
20180123163009 54 199 5.0 9.0 0.01 0.08 0.08 83 1007.5
20180123162010 54 198 7.0 8.0 0.00 0.07 0.07 82 1007.0
20180123161009 54 195 8.0 11.0 0.00 0.07 0.07 82 1006.8
20180123160010 54 169 7.0 10.0 0.00 0.07 0.07 82 1006.6
20180123155009 54 185 8.0 11.0 0.00 0.07 0.07 82 1006.6
20180123154010 54 196 6.0 9.0 0.00 0.07 0.07 82 1006.4
20180123153009 54 175 7.0 11.0 0.00 0.07 0.07 82 1006.4
20180123152009 54 206 8.0 10.0 0.00 0.07 0.07 81 1006.4
20180123151009 54 210 7.0 9.0 0.00 0.07 0.07 78 1006.3
20180123150009 55 220 8.0 11.0 0.00 0.07 0.07 77 1006.3
20180123145010 55 188 9.0 11.0 0.00 0.07 0.07 77 1006.1
20180123144009 55 196 10.0 14.0 0.00 0.07 0.07 78 1006.1
20180123143009 55 218 10.0 15.0 0.00 0.07 0.07 79 1006.4
20180123142009 55 232 9.0 14.0 0.00 0.07 0.07 80 1006.2
20180123141009 55 207 9.0 13.0 0.00 0.07 0.07 80 1006.4
20180123140009 55 194 8.0 15.0 0.00 0.07 0.07 80 1006.3
20180123135009 54 165 7.0 10.0 0.00 0.07 0.07 82 1006.4
20180123134009 54 165 7.0 10.0 0.00 0.07 0.07 82 1006.5
20180123133009 54 202 9.0 12.0 0.00 0.07 0.07 78 1006.7
20180123132010 55 183 9.0 12.0 0.00 0.07 0.07 78 1006.9
20180123131009 55 216 12.0 15.0 0.00 0.07 0.07 77 1007.0
20180123130009 55 194 12.0 15.0 0.00 0.07 0.07 76 1007.4
20180123125009 56 186 8.0 11.0 0.00 0.07 0.07 76 1007.2
20180123124009 55 177 8.0 11.0 0.00 0.07 0.07 77 1007.1
20180123123009 55 195 9.0 12.0 0.00 0.07 0.07 77 1007.3
20180123122010 55 201 8.0 12.0 0.00 0.07 0.07 77 1007.4
20180123121009 55 206 8.0 11.0 0.00 0.07 0.07 78 1007.6
20180123120009 55 182 9.0 14.0 0.00 0.07 0.07 79 1007.3
20180123115009 55 194 10.0 15.0 0.00 0.07 0.07 78 1007.4
20180123114009 55 179 10.0 12.0 0.00 0.07 0.07 79 1007.6
20180123113009 55 193 11.0 15.0 0.00 0.07 0.07 81 1007.6
20180123112009 54 201 10.0 12.0 0.00 0.07 0.07 84 1008.0
20180123111009 54 211 9.0 14.0 0.00 0.07 0.07 85 1008.1
20180123110009 54 202 9.0 13.0 0.00 0.07 0.07 85 1008.2
20180123105009 54 179 11.0 13.0 0.00 0.07 0.07 85 1008.2
20180123104009 53 194 11.0 15.0 0.00 0.07 0.07 86 1008.0
20180123103010 53 217 11.0 17.0 0.00 0.07 0.07 86 1007.9
20180123102009 53 194 9.0 14.0 0.00 0.07 0.07 87 1007.9
20180123101009 53 262 9.0 15.0 0.00 0.07 0.07 87 1008.2
20180123100009 53 230 9.0 13.0 0.00 0.07 0.07 87 1007.9
20180123095009 53 219 10.0 15.0 0.00 0.07 0.07 87 1008.1
20180123094009 53 215 9.0 14.0 0.00 0.07 0.07 87 1008.0
20180123093009 53 201 9.0 15.0 0.00 0.07 0.07 87 1007.9
20180123092009 53 211 11.0 18.0 0.00 0.07 0.07 87 1007.9
20180123091009 53 207 10.0 14.0 0.00 0.07 0.07 87 1007.7
20180123090009 52 216 9.0 14.0 0.00 0.07 0.07 87 1007.9
20180123085009 52 230 14.0 18.0 0.00 0.07 0.07 87 1007.7
20180123084009 53 192 12.0 19.0 0.00 0.07 0.07 87 1007.8
20180123083009 53 175 10.0 12.0 0.00 0.07 0.07 87 1007.8
20180123082009 53 195 10.0 13.0 0.00 0.07 0.07 87 1008.0
20180123081009 53 209 11.0 16.0 0.00 0.07 0.07 87 1007.8
20180123080009 52 208 9.0 13.0 0.00 0.08 0.07 87 1008.0
20180123075009 52 209 10.0 12.0 0.00 0.08 0.07 87 1007.8
20180123074009 52 211 10.0 12.0 0.00 0.08 0.07 87 1007.8
20180123073009 52 193 9.0 12.0 0.00 0.08 0.07 87 1007.7
20180123072009 51 193 9.0 13.0 0.00 0.08 0.07 86 1007.9
20180123071009 51 186 10.0 15.0 0.00 0.08 0.07 86 1007.9
20180123070009 51 197 10.0 15.0 0.01 0.00 0.07 86 1008.4
20180123065009 51 209 9.0 13.0 0.04 0.00 0.07 86 1008.0
20180123064009 51 202 9.0 13.0 0.04 0.00 0.07 86 1008.1
20180123063009 51 186 10.0 15.0 0.04 0.00 0.07 86 1008.2
20180123062009 51 208 11.0 15.0 0.04 0.00 0.07 86 1008.1
20180123061009 51 197 12.0 15.0 0.04 0.00 0.07 85 1008.0
20180123060010 51 210 12.0 17.0 0.04 0.00 0.06 85 1008.3
20180123055010 51 191 13.0 15.0 0.01 0.00 0.04 85 1008.4
20180123054010 51 189 13.0 20.0 0.02 0.00 0.04 85 1008.0
20180123053010 51 201 12.0 21.0 0.02 0.00 0.04 85 1008.4
20180123052010 51 185 14.0 20.0 0.02 0.00 0.04 85 1008.4
20180123051010 50 196 14.0 17.0 0.04 0.00 0.04 84 1008.4
20180123050010 50 226 17.0 22.0 0.02 0.00 0.02 84 1008.5
20180123045010 50 203 14.0 21.0 0.02 0.00 0.02 84 1009.0
20180123044010 50 213 14.0 19.0 0.01 0.00 0.01 84 1008.9
20180123043010 50 189 12.0 19.0 0.01 0.00 0.01 83 1009.0
20180123042010 50 215 12.0 16.0 0.01 0.00 0.01 83 1009.1
20180123041010 50 205 10.0 15.0 0.00 0.00 0.00 83 1009.3
20180123040010 50 210 10.0 14.0 0.00 0.00 0.00 82 1009.7
20180123035010 50 208 11.0 15.0 0.00 0.00 0.00 82 1009.6
20180123034010 50 203 14.0 17.0 0.00 0.00 0.00 81 1009.8
20180123033010 50 222 14.0 17.0 0.00 0.00 0.00 81 1010.1
20180123032010 50 204 12.0 16.0 0.00 0.00 0.00 81 1009.9
20180123031010 50 198 13.0 21.0 0.00 0.00 0.00 81 1010.1
20180123030010 50 189 11.0 16.0 0.00 0.00 0.00 81 1010.3
20180123025010 50 203 12.0 17.0 0.00 0.00 0.00 80 1010.5
20180123024010 50 187 14.0 17.0 0.00 0.00 0.00 80 1010.4
20180123023010 49 197 11.0 15.0 0.00 0.00 0.00 80 1010.4
20180123022010 49 213 14.0 20.0 0.00 0.00 0.00 80 1010.5
20180123021010 49 191 14.0 16.0 0.00 0.00 0.00 80 1010.5
20180123020010 49 209 13.0 16.0 0.00 0.00 0.00 80 1010.6
20180123015010 49 195 13.0 17.0 0.00 0.00 0.00 80 1010.7
20180123014010 49 191 13.0 16.0 0.00 0.00 0.00 79 1010.8
20180123013010 49 227 10.0 17.0 0.00 0.00 0.00 79 1011.2
20180123012010 48 208 11.0 15.0 0.00 0.00 0.00 80 1011.3
20180123011009 48 220 10.0 13.0 0.00 0.00 0.00 80 1011.4
20180123010010 48 216 7.0 9.0 0.00 0.00 0.00 80 1011.7
20180123005010 48 205 5.0 8.0 0.00 0.00 0.00 80 1011.5
20180123004010 48 186 4.0 7.0 0.00 0.00 0.00 79 1011.6
20180123003010 47 183 7.0 9.0 0.00 0.00 0.00 79 1011.9
20180123002010 47 193 6.0 8.0 0.00 0.00 0.00 78 1012.1
20180123001009 47 207 7.0 10.0 0.00 0.00 0.00 77 1012.0
20180123000017 46 210 8.0 10.0 0.00 0.00 0.00 77 1012.2
20180122235010 46 203 6.0 9.0 0.00 0.00 0.01 76 1012.3
20180122234010 46 204 4.0 6.0 0.00 0.00 0.01 76 1012.4
20180122233010 47 138 1.0 4.0 0.00 0.00 0.01 76 1012.3
20180122232010 47 73 0.0 3.0 0.00 0.00 0.01 76 1012.6
20180122231010 47 151 4.0 7.0 0.00 0.00 0.01 76 1012.6
20180122230010 47 199 4.0 6.0 0.00 0.00 0.01 76 1012.6
20180122225010 47 202 4.0 8.0 0.00 0.00 0.01 76 1012.7
20180122224010 47 90 1.0 4.0 0.00 0.00 0.01 75 1013.0
20180122223010 47 126 2.0 4.0 0.00 0.00 0.01 75 1012.9
20180122222010 47 171 3.0 5.0 0.00 0.00 0.01 75 1013.0
20180122221010 47 179 2.0 4.0 0.00 0.00 0.01 74 1012.9
20180122220010 47 190 4.0 8.0 0.00 0.00 0.01 74 1013.1
20180122215010 47 185 2.0 5.0 0.00 0.00 0.01 74 1012.8
20180122214010 47 190 3.0 5.0 0.00 0.00 0.01 74 1012.7
20180122213018 47 187 4.0 5.0 0.00 0.00 0.01 74 1012.7
20180122212010 47 209 4.0 6.0 0.00 0.00 0.01 74 1012.8
20180122211009 47 198 4.0 8.0 0.00 0.00 0.01 74 1012.6
20180122210052 47 182 3.0 5.0 0.00 0.00 0.01 73 1012.8
20180122205037 46 192 2.0 4.0 0.00 0.00 0.01 73 1012.6
20180122204017 46 200 3.0 4.0 0.00 0.00 0.01 72 1012.5
20180122203016 46 190 2.0 4.0 0.00 0.00 0.01 72 1012.5
20180122202016 46 168 2.0 4.0 0.00 0.00 0.01 72 1012.5
20180122201016 46 149 0.0 3.0 0.00 0.00 0.01 72 1012.3
20180122200016 46 0 0.0 0.0 0.00 0.00 0.01 71 1012.5
20180122195016 46 179 0.0 3.0 0.00 0.00 0.01 71 1012.4
20180122194016 46 181 2.0 4.0 0.00 0.00 0.01 71 1012.5
20180122193016 46 164 1.0 3.0 0.00 0.00 0.01 71 1012.5
20180122192016 46 0 0.0 0.0 0.00 0.00 0.01 70 1012.7
20180122191016 46 99 0.0 2.0 0.00 0.00 0.01 70 1012.5
20180122190016 46 181 1.0 4.0 0.00 0.00 0.01 70 1012.5
20180122185016 46 0 0.0 0.0 0.00 0.00 0.01 70 1012.6
20180122184016 46 0 0.0 0.0 0.00 0.00 0.01 70 1012.2
20180122183016 46 0 0.0 0.0 0.00 0.00 0.01 70 1012.2
20180122182016 46 220 1.0 4.0 0.00 0.00 0.01 70 1012.0
20180122181016 47 0 0.0 0.0 0.00 0.00 0.01 70 1012.0